| time (UTC) | temp C | wind direction | speed KPH | gust KPH | rain 1hr cm | rain 24hr cm | rain mn cm | humidity % | barometer mb |
| 20260508040009 | 5 | 279 | 0.0 | 0.0 | 0.00 | 0.33 | 0.25 | 67 | 1007.2 |
| 20260508035508 | 5 | 279 | 0.0 | 0.0 | 0.00 | 0.33 | 0.25 | 65 | 1007.2 |
| 20260508035008 | 5 | 279 | 0.0 | 0.0 | 0.00 | 0.33 | 0.25 | 64 | 1007.2 |
| 20260508034510 | 6 | 279 | 0.0 | 0.0 | 0.00 | 0.33 | 0.25 | 64 | 1007.3 |
| 20260508034008 | 6 | 279 | 0.0 | 0.0 | 0.00 | 0.33 | 0.25 | 66 | 1007.3 |
| 20260508033505 | 6 | 306 | 0.0 | 0.0 | 0.00 | 0.33 | 0.25 | 66 | 1007.3 |
| 20260508033011 | 6 | 306 | 0.0 | 0.0 | 0.00 | 0.33 | 0.25 | 64 | 1007.4 |
| 20260508032504 | 6 | 306 | 0.0 | 0.0 | 0.00 | 0.33 | 0.25 | 63 | 1007.5 |
| 20260508032003 | 6 | 306 | 0.0 | 0.0 | 0.00 | 0.33 | 0.25 | 60 | 1007.5 |
| 20260508031505 | 6 | 306 | 0.0 | 0.0 | 0.00 | 0.33 | 0.25 | 57 | 1007.5 |
| 20260508031002 | 7 | 306 | 0.0 | 0.0 | 0.00 | 0.33 | 0.25 | 57 | 1007.5 |
| 20260508030502 | 7 | 306 | 0.0 | 0.0 | 0.00 | 0.33 | 0.25 | 60 | 1007.4 |
| 20260508030002 | 7 | 306 | 0.0 | 0.0 | 0.00 | 0.36 | 0.25 | 59 | 1007.4 |
| 20260508025600 | 7 | 306 | 0.0 | 0.0 | 0.00 | 0.36 | 0.25 | 56 | 1007.3 |
| 20260508025100 | 7 | 306 | 0.0 | 0.0 | 0.00 | 0.36 | 0.25 | 58 | 1007.3 |
| 20260508024618 | 7 | 306 | 0.0 | 0.0 | 0.00 | 0.36 | 0.25 | 56 | 1007.2 |
| 20260508024059 | 7 | 311 | 0.0 | 0.0 | 0.00 | 0.36 | 0.25 | 58 | 1007.2 |
| 20260508023559 | 7 | 294 | 0.0 | 0.0 | 0.00 | 0.36 | 0.25 | 57 | 1007.2 |
| 20260508023059 | 7 | 305 | 0.0 | 0.0 | 0.00 | 0.36 | 0.25 | 57 | 1007.1 |
| 20260508022602 | 7 | 304 | 0.0 | 0.0 | 0.00 | 0.36 | 0.25 | 58 | 1007.1 |
| 20260508022059 | 7 | 304 | 0.0 | 0.0 | 0.00 | 0.36 | 0.25 | 59 | 1007.1 |
| 20260508021559 | 7 | 297 | 0.0 | 0.0 | 0.00 | 0.36 | 0.25 | 56 | 1007.0 |
| 20260508021058 | 8 | 297 | 0.0 | 0.0 | 0.00 | 0.36 | 0.25 | 58 | 1007.0 |
| 20260508020559 | 8 | 311 | 0.0 | 0.0 | 0.00 | 0.36 | 0.25 | 58 | 1006.9 |
| 20260508020106 | 8 | 24 | 0.0 | 0.0 | 0.00 | 0.36 | 0.25 | 58 | 1006.9 |
| 20260508015559 | 8 | 342 | 0.0 | 0.0 | 0.00 | 0.48 | 0.25 | 58 | 1006.9 |
| 20260508015059 | 8 | 342 | 0.0 | 0.0 | 0.00 | 0.48 | 0.25 | 57 | 1006.9 |
| 20260508014620 | 8 | 342 | 0.0 | 0.0 | 0.00 | 0.48 | 0.25 | 56 | 1006.8 |
| 20260508014058 | 8 | 342 | 0.0 | 0.0 | 0.00 | 0.48 | 0.25 | 56 | 1006.9 |
| 20260508013557 | 9 | 342 | 0.0 | 0.0 | 0.00 | 0.48 | 0.25 | 56 | 1006.9 |
| 20260508013101 | 9 | 342 | 0.0 | 0.0 | 0.00 | 0.48 | 0.25 | 54 | 1006.8 |
| 20260508012557 | 9 | 310 | 0.0 | 0.0 | 0.00 | 0.48 | 0.25 | 54 | 1006.7 |
| 20260508012058 | 9 | 336 | 0.0 | 0.0 | 0.00 | 0.48 | 0.25 | 51 | 1006.7 |
| 20260508011612 | 9 | 296 | 0.0 | 0.0 | 0.00 | 0.48 | 0.25 | 52 | 1006.6 |
| 20260508011057 | 9 | 297 | 0.0 | 0.0 | 0.00 | 0.48 | 0.25 | 53 | 1006.5 |
| 20260508010557 | 9 | 296 | 0.0 | 0.0 | 0.00 | 0.48 | 0.25 | 52 | 1006.5 |
| 20260508005558 | 10 | 298 | 0.0 | 0.0 | 0.00 | 0.48 | 0.25 | 52 | 1006.5 |
| 20260508005056 | 10 | 298 | 0.0 | 0.0 | 0.00 | 0.48 | 0.25 | 52 | 1006.3 |
| 20260508004557 | 10 | 298 | 0.0 | 0.0 | 0.00 | 0.48 | 0.25 | 53 | 1006.2 |
| 20260508004056 | 10 | 302 | 0.0 | 0.0 | 0.00 | 0.48 | 0.25 | 50 | 1006.1 |
| 20260508003556 | 10 | 302 | 0.0 | 0.0 | 0.00 | 0.48 | 0.25 | 49 | 1006.0 |
| 20260508003056 | 11 | 302 | 0.0 | 0.0 | 0.00 | 0.48 | 0.25 | 47 | 1005.9 |
| 20260508002556 | 11 | 302 | 0.0 | 0.0 | 0.00 | 0.48 | 0.25 | 45 | 1005.7 |
| 20260508002055 | 11 | 297 | 0.0 | 0.0 | 0.00 | 0.48 | 0.25 | 45 | 1005.7 |
| 20260508001559 | 11 | 299 | 0.0 | 0.0 | 0.00 | 0.48 | 0.25 | 45 | 1005.7 |
| 20260508001054 | 11 | 360 | 0.0 | 0.0 | 0.00 | 0.48 | 0.25 | 44 | 1005.6 |
| 20260508000555 | 11 | 321 | 0.0 | 0.0 | 0.00 | 0.48 | 0.25 | 44 | 1005.6 |
| 20260508000055 | 12 | 298 | 0.0 | 0.0 | 0.00 | 0.48 | 0.25 | 44 | 1005.5 |
| 20260507235555 | 12 | 304 | 0.0 | 0.0 | 0.00 | 0.51 | 0.25 | 44 | 1005.6 |
| 20260507235055 | 12 | 317 | 0.0 | 0.0 | 0.00 | 0.51 | 0.25 | 44 | 1005.5 |
| 20260507234556 | 12 | 235 | 0.0 | 0.0 | 0.00 | 0.51 | 0.25 | 43 | 1005.3 |
| 20260507234053 | 12 | 306 | 0.0 | 0.0 | 0.00 | 0.51 | 0.25 | 43 | 1005.3 |
| 20260507233553 | 12 | 306 | 0.0 | 0.0 | 0.00 | 0.51 | 0.25 | 42 | 1005.2 |
| 20260507233105 | 13 | 307 | 0.0 | 0.0 | 0.00 | 0.51 | 0.25 | 41 | 1005.2 |
| 20260507232553 | 13 | 289 | 0.0 | 0.0 | 0.00 | 0.51 | 0.25 | 39 | 1005.1 |
| 20260507232052 | 13 | 273 | 0.0 | 0.0 | 0.00 | 0.51 | 0.25 | 40 | 1005.0 |
| 20260507231553 | 13 | 333 | 0.0 | 0.0 | 0.00 | 0.51 | 0.25 | 39 | 1005.0 |
| 20260507231056 | 13 | 49 | 0.0 | 0.0 | 0.00 | 0.51 | 0.25 | 39 | 1004.8 |
| 20260507230555 | 13 | 308 | 0.0 | 0.0 | 0.00 | 0.51 | 0.25 | 39 | 1004.7 |
| 20260507230053 | 14 | 295 | 0.0 | 0.0 | 0.00 | 0.51 | 0.25 | 38 | 1004.6 |
| 20260507225552 | 14 | 11 | 0.0 | 0.0 | 0.00 | 0.53 | 0.25 | 38 | 1004.6 |
| 20260507225052 | 14 | 331 | 0.0 | 0.0 | 0.00 | 0.53 | 0.25 | 37 | 1004.5 |
| 20260507224552 | 14 | 296 | 0.0 | 0.0 | 0.00 | 0.53 | 0.25 | 40 | 1004.4 |
| 20260507224055 | 14 | 338 | 0.0 | 0.0 | 0.00 | 0.53 | 0.25 | 39 | 1004.4 |
| 20260507223554 | 15 | 299 | 0.0 | 0.0 | 0.00 | 0.53 | 0.25 | 37 | 1004.3 |
| 20260507223052 | 15 | 333 | 0.0 | 0.0 | 0.00 | 0.53 | 0.25 | 38 | 1004.3 |
| 20260507222552 | 15 | 246 | 0.0 | 0.0 | 0.00 | 0.53 | 0.25 | 39 | 1004.2 |
| 20260507222051 | 15 | 284 | 0.0 | 0.0 | 0.00 | 0.53 | 0.25 | 38 | 1004.1 |
| 20260507221551 | 15 | 290 | 0.0 | 0.0 | 0.00 | 0.53 | 0.25 | 37 | 1004.1 |
| 20260507221053 | 15 | 288 | 0.0 | 0.0 | 0.00 | 0.53 | 0.25 | 39 | 1004.1 |
| 20260507220550 | 15 | 38 | 0.0 | 1.6 | 0.00 | 0.53 | 0.25 | 41 | 1004.0 |
| 20260507220050 | 15 | 78 | 0.0 | 1.6 | 0.00 | 0.53 | 0.25 | 42 | 1004.0 |
| 20260507215550 | 14 | 16 | 0.0 | 1.6 | 0.00 | 0.76 | 0.25 | 38 | 1004.0 |
| 20260507215050 | 15 | 327 | 0.0 | 0.0 | 0.00 | 0.76 | 0.25 | 39 | 1004.0 |
| 20260507214551 | 15 | 320 | 0.0 | 0.0 | 0.00 | 0.76 | 0.25 | 39 | 1004.0 |
| 20260507214052 | 15 | 11 | 0.0 | 0.0 | 0.00 | 0.76 | 0.25 | 39 | 1003.9 |
| 20260507213550 | 15 | 36 | 0.0 | 0.0 | 0.00 | 0.76 | 0.25 | 40 | 1004.0 |
| 20260507213050 | 15 | 263 | 0.0 | 0.0 | 0.00 | 0.76 | 0.25 | 40 | 1004.0 |
| 20260507212549 | 15 | 259 | 0.0 | 0.0 | 0.00 | 0.76 | 0.25 | 39 | 1003.9 |
| 20260507212051 | 15 | 17 | 0.0 | 0.0 | 0.00 | 0.76 | 0.25 | 39 | 1003.9 |
| 20260507211553 | 15 | 292 | 0.0 | 0.0 | 0.00 | 0.76 | 0.25 | 38 | 1004.0 |
| 20260507211048 | 15 | 338 | 0.0 | 0.0 | 0.00 | 0.76 | 0.25 | 38 | 1003.8 |
| 20260507210548 | 15 | 312 | 0.0 | 0.0 | 0.00 | 0.76 | 0.25 | 38 | 1003.8 |
| 20260507210048 | 15 | 261 | 0.0 | 0.0 | 0.00 | 0.76 | 0.25 | 40 | 1003.8 |
| 20260507205548 | 15 | 275 | 0.0 | 0.0 | 0.00 | 1.04 | 0.25 | 40 | 1003.7 |
| 20260507205051 | 15 | 296 | 0.0 | 0.0 | 0.00 | 1.04 | 0.25 | 41 | 1003.7 |
| 20260507204549 | 15 | 307 | 0.0 | 0.0 | 0.00 | 1.04 | 0.25 | 42 | 1003.6 |
| 20260507204047 | 15 | 317 | 0.0 | 0.0 | 0.00 | 1.04 | 0.25 | 41 | 1003.6 |
| 20260507203547 | 15 | 311 | 0.0 | 0.0 | 0.00 | 1.04 | 0.25 | 43 | 1003.6 |
| 20260507203048 | 15 | 360 | 0.0 | 0.0 | 0.00 | 1.04 | 0.25 | 39 | 1003.5 |
| 20260507202548 | 15 | 281 | 0.0 | 0.0 | 0.00 | 1.04 | 0.25 | 41 | 1003.6 |
| 20260507202048 | 16 | 275 | 0.0 | 1.6 | 0.00 | 1.04 | 0.25 | 42 | 1003.5 |
| 20260507201547 | 16 | 296 | 0.0 | 1.6 | 0.00 | 1.04 | 0.25 | 38 | 1003.5 |
| 20260507201048 | 16 | 265 | 0.0 | 1.6 | 0.00 | 1.04 | 0.25 | 35 | 1003.5 |
| 20260507200546 | 16 | 310 | 0.0 | 1.6 | 0.00 | 1.04 | 0.25 | 36 | 1003.5 |
| 20260507200047 | 16 | 212 | 0.0 | 0.0 | 0.00 | 1.04 | 0.25 | 34 | 1003.5 |
| 20260507195545 | 16 | 300 | 0.0 | 0.0 | 0.00 | 1.45 | 0.25 | 40 | 1003.4 |
| 20260507195046 | 16 | 281 | 0.0 | 0.0 | 0.00 | 1.45 | 0.25 | 36 | 1003.4 |
| 20260507194547 | 16 | 261 | 0.0 | 0.0 | 0.00 | 1.45 | 0.25 | 42 | 1003.5 |
| 20260507194045 | 16 | 241 | 0.0 | 0.0 | 0.00 | 1.45 | 0.25 | 44 | 1003.5 |
| 20260507193543 | 16 | 269 | 0.0 | 0.0 | 0.00 | 1.45 | 0.25 | 48 | 1003.5 |
| 20260507193042 | 16 | 280 | 0.0 | 0.0 | 0.00 | 1.45 | 0.25 | 48 | 1003.6 |
| 20260507192540 | 16 | 312 | 0.0 | 0.0 | 0.00 | 1.45 | 0.25 | 52 | 1003.7 |
| 20260507192041 | 16 | 177 | 0.0 | 0.0 | 0.00 | 1.45 | 0.25 | 52 | 1003.7 |
| 20260507191540 | 15 | 46 | 0.0 | 0.0 | 0.00 | 1.45 | 0.25 | 51 | 1003.7 |
| 20260507191039 | 16 | 360 | 0.0 | 0.0 | 0.00 | 1.45 | 0.25 | 54 | 1003.7 |
| 20260507190543 | 16 | 302 | 0.0 | 1.6 | 0.00 | 1.45 | 0.25 | 52 | 1003.7 |
| 20260507190039 | 16 | 286 | 0.0 | 1.6 | 0.00 | 1.50 | 0.25 | 52 | 1003.7 |
| 20260507185539 | 16 | 17 | 0.0 | 0.0 | 0.00 | 1.50 | 0.25 | 54 | 1003.7 |
| 20260507185039 | 16 | 329 | 0.0 | 1.6 | 0.00 | 1.50 | 0.25 | 52 | 1003.8 |
| 20260507184538 | 16 | 344 | 0.0 | 1.6 | 0.00 | 1.50 | 0.25 | 50 | 1003.8 |
| 20260507184041 | 16 | 303 | 0.0 | 1.6 | 0.00 | 1.50 | 0.25 | 55 | 1003.8 |
| 20260507183541 | 16 | 326 | 0.0 | 0.0 | 0.00 | 1.50 | 0.25 | 56 | 1003.7 |
| 20260507183046 | 16 | 229 | 0.0 | 0.0 | 0.00 | 1.50 | 0.25 | 52 | 1003.8 |
| 20260507182537 | 16 | 268 | 0.0 | 0.0 | 0.00 | 1.50 | 0.25 | 55 | 1003.7 |
| 20260507182037 | 15 | 291 | 0.0 | 1.6 | 0.00 | 1.50 | 0.25 | 60 | 1003.7 |
| 20260507181540 | 15 | 34 | 0.0 | 1.6 | 0.00 | 1.50 | 0.25 | 61 | 1003.8 |
| 20260507181036 | 14 | 152 | 0.0 | 0.0 | 0.00 | 1.50 | 0.25 | 66 | 1003.9 |
| 20260507180535 | 14 | 152 | 0.0 | 0.0 | 0.00 | 1.50 | 0.25 | 67 | 1003.9 |
| 20260507180036 | 15 | 152 | 0.0 | 0.0 | 0.00 | 1.50 | 0.25 | 65 | 1004.1 |
| 20260507175534 | 15 | 198 | 0.0 | 0.0 | 0.00 | 1.50 | 0.25 | 68 | 1004.0 |
| 20260507175034 | 14 | 216 | 0.0 | 0.0 | 0.00 | 1.50 | 0.25 | 70 | 1004.0 |
| 20260507174533 | 13 | 215 | 0.0 | 0.0 | 0.00 | 1.50 | 0.25 | 72 | 1004.2 |
| 20260507174033 | 13 | 241 | 0.0 | 0.0 | 0.00 | 1.50 | 0.25 | 69 | 1004.3 |
| 20260507173533 | 13 | 244 | 0.0 | 0.0 | 0.00 | 1.50 | 0.25 | 68 | 1004.4 |
| 20260507173034 | 14 | 293 | 0.0 | 0.0 | 0.00 | 1.50 | 0.25 | 66 | 1004.4 |
| 20260507172536 | 15 | 302 | 0.0 | 0.0 | 0.00 | 1.50 | 0.25 | 68 | 1004.4 |
| 20260507172035 | 15 | 329 | 0.0 | 0.0 | 0.00 | 1.50 | 0.25 | 66 | 1004.3 |
| 20260507171533 | 15 | 348 | 0.0 | 0.0 | 0.00 | 1.50 | 0.25 | 60 | 1004.4 |
| 20260507171032 | 15 | 350 | 0.0 | 0.0 | 0.00 | 1.50 | 0.25 | 58 | 1004.3 |
| 20260507170532 | 16 | 350 | 0.0 | 0.0 | 0.00 | 1.50 | 0.25 | 56 | 1004.4 |
| 20260507170032 | 16 | 278 | 0.0 | 0.0 | 0.00 | 1.50 | 0.25 | 56 | 1004.4 |
| 20260507165531 | 16 | 271 | 0.0 | 0.0 | 0.00 | 1.50 | 0.25 | 55 | 1004.4 |
| 20260507165032 | 16 | 29 | 0.0 | 0.0 | 0.00 | 1.50 | 0.25 | 55 | 1004.3 |
| 20260507164541 | 15 | 309 | 0.0 | 0.0 | 0.00 | 1.50 | 0.25 | 58 | 1004.4 |
| 20260507164032 | 16 | 288 | 0.0 | 0.0 | 0.00 | 1.50 | 0.25 | 55 | 1004.5 |
| 20260507163531 | 16 | 293 | 0.0 | 0.0 | 0.00 | 1.50 | 0.25 | 55 | 1004.6 |
| 20260507163037 | 16 | 276 | 0.0 | 0.0 | 0.00 | 1.50 | 0.25 | 59 | 1004.6 |
| 20260507162531 | 16 | 348 | 0.0 | 0.0 | 0.00 | 1.50 | 0.25 | 56 | 1004.7 |
| 20260507162031 | 16 | 322 | 0.0 | 0.0 | 0.00 | 1.50 | 0.25 | 58 | 1004.7 |
| 20260507161540 | 16 | 225 | 0.0 | 0.0 | 0.00 | 1.50 | 0.25 | 59 | 1004.8 |
| 20260507161031 | 15 | 280 | 0.0 | 0.0 | 0.00 | 1.50 | 0.25 | 60 | 1004.9 |
| 20260507160531 | 15 | 289 | 0.0 | 0.0 | 0.00 | 1.50 | 0.25 | 56 | 1005.0 |
| 20260507160042 | 16 | 290 | 0.0 | 0.0 | 0.00 | 1.50 | 0.25 | 56 | 1005.1 |
| 20260507155530 | 16 | 293 | 0.0 | 0.0 | 0.00 | 1.50 | 0.25 | 54 | 1005.2 |
| 20260507155030 | 16 | 266 | 0.0 | 0.0 | 0.00 | 1.50 | 0.25 | 54 | 1005.2 |
| 20260507154531 | 16 | 313 | 0.0 | 0.0 | 0.00 | 1.50 | 0.25 | 60 | 1005.2 |
| 20260507154029 | 16 | 319 | 0.0 | 0.0 | 0.00 | 1.50 | 0.25 | 60 | 1005.4 |
| 20260507153528 | 16 | 284 | 0.0 | 0.0 | 0.00 | 1.50 | 0.25 | 57 | 1005.4 |
| 20260507153031 | 16 | 225 | 0.0 | 0.0 | 0.00 | 1.50 | 0.25 | 54 | 1005.4 |
| 20260507152528 | 16 | 248 | 0.0 | 0.0 | 0.00 | 1.50 | 0.25 | 62 | 1005.4 |
| 20260507152030 | 16 | 267 | 0.0 | 0.0 | 0.00 | 1.50 | 0.25 | 60 | 1005.4 |
| 20260507151526 | 16 | 242 | 0.0 | 0.0 | 0.00 | 1.50 | 0.25 | 65 | 1005.4 |
| 20260507151026 | 16 | 44 | 0.0 | 0.0 | 0.00 | 1.50 | 0.25 | 61 | 1005.5 |
| 20260507150524 | 15 | 250 | 0.0 | 0.0 | 0.00 | 1.50 | 0.25 | 65 | 1005.5 |
| 20260507150027 | 15 | 242 | 0.0 | 0.0 | 0.00 | 1.50 | 0.25 | 61 | 1005.6 |
| 20260507145524 | 15 | 258 | 0.0 | 0.0 | 0.00 | 1.50 | 0.25 | 65 | 1005.6 |
| 20260507145027 | 15 | 294 | 0.0 | 1.6 | 0.00 | 1.50 | 0.25 | 64 | 1005.7 |
| 20260507144531 | 15 | 287 | 0.0 | 1.6 | 0.00 | 1.50 | 0.25 | 61 | 1005.7 |
| 20260507144023 | 15 | 310 | 0.0 | 0.0 | 0.00 | 1.50 | 0.25 | 66 | 1005.6 |
| 20260507143521 | 15 | 244 | 0.0 | 0.0 | 0.00 | 1.50 | 0.25 | 66 | 1005.8 |
| 20260507143021 | 15 | 207 | 0.0 | 0.0 | 0.00 | 1.50 | 0.25 | 67 | 1005.9 |
| 20260507142519 | 15 | 150 | 0.0 | 0.0 | 0.00 | 1.50 | 0.25 | 68 | 1006.0 |
| 20260507142018 | 15 | 268 | 0.0 | 0.0 | 0.00 | 1.50 | 0.25 | 73 | 1006.1 |
| 20260507141520 | 14 | 253 | 0.0 | 0.0 | 0.00 | 1.50 | 0.25 | 70 | 1006.0 |
| 20260507141017 | 14 | 281 | 0.0 | 0.0 | 0.00 | 1.50 | 0.25 | 71 | 1006.0 |
| 20260507140515 | 14 | 269 | 0.0 | 0.0 | 0.00 | 1.50 | 0.25 | 68 | 1006.1 |
| 20260507140014 | 13 | 271 | 0.0 | 0.0 | 0.00 | 1.50 | 0.25 | 70 | 1006.1 |
| 20260507135513 | 13 | 269 | 0.0 | 0.0 | 0.00 | 1.50 | 0.25 | 68 | 1006.2 |
| 20260507135011 | 13 | 267 | 0.0 | 0.0 | 0.00 | 1.50 | 0.25 | 75 | 1006.2 |
| 20260507134510 | 13 | 245 | 0.0 | 0.0 | 0.00 | 1.50 | 0.25 | 73 | 1006.2 |
| 20260507134008 | 12 | 245 | 0.0 | 0.0 | 0.00 | 1.50 | 0.25 | 74 | 1006.2 |
| 20260507133507 | 12 | 348 | 0.0 | 0.0 | 0.00 | 1.50 | 0.25 | 75 | 1006.2 |
| 20260507133007 | 12 | 321 | 0.0 | 0.0 | 0.00 | 1.50 | 0.25 | 73 | 1006.3 |
| 20260507132505 | 12 | 338 | 0.0 | 0.0 | 0.00 | 1.50 | 0.25 | 75 | 1006.2 |
| 20260507132004 | 11 | 297 | 0.0 | 0.0 | 0.00 | 1.50 | 0.25 | 75 | 1006.2 |
| 20260507131503 | 11 | 298 | 0.0 | 0.0 | 0.00 | 1.50 | 0.25 | 78 | 1006.2 |
| 20260507131001 | 11 | 298 | 0.0 | 0.0 | 0.00 | 1.50 | 0.25 | 78 | 1006.2 |
| 20260507130500 | 11 | 284 | 0.0 | 0.0 | 0.00 | 1.50 | 0.25 | 78 | 1006.2 |
| 20260507130111 | 10 | 349 | 0.0 | 0.0 | 0.00 | 1.50 | 0.25 | 80 | 1006.3 |
| 20260507125600 | 10 | 349 | 0.0 | 0.0 | 0.00 | 1.50 | 0.25 | 81 | 1006.3 |
| 20260507125059 | 10 | 275 | 0.0 | 0.0 | 0.00 | 1.50 | 0.25 | 82 | 1006.5 |
| 20260507124634 | 10 | 253 | 0.0 | 0.0 | 0.00 | 1.50 | 0.25 | 83 | 1006.5 |
| 20260507124058 | 10 | 315 | 0.0 | 0.0 | 0.00 | 1.50 | 0.25 | 83 | 1006.5 |
| 20260507123558 | 9 | 355 | 0.0 | 0.0 | 0.00 | 1.50 | 0.25 | 84 | 1006.5 |
| 20260507123057 | 9 | 342 | 0.0 | 0.0 | 0.00 | 1.50 | 0.25 | 84 | 1006.4 |
| 20260507122557 | 8 | 43 | 0.0 | 0.0 | 0.00 | 1.50 | 0.25 | 84 | 1006.3 |
| 20260507122057 | 8 | 346 | 0.0 | 0.0 | 0.00 | 1.50 | 0.25 | 87 | 1006.3 |
| 20260507121556 | 8 | 301 | 0.0 | 0.0 | 0.00 | 1.50 | 0.25 | 89 | 1006.4 |
| 20260507121056 | 8 | 301 | 0.0 | 0.0 | 0.00 | 1.50 | 0.25 | 89 | 1006.3 |
| 20260507120556 | 8 | 300 | 0.0 | 0.0 | 0.00 | 1.50 | 0.25 | 90 | 1006.4 |
| 20260507120056 | 8 | 299 | 0.0 | 0.0 | 0.00 | 1.50 | 0.25 | 90 | 1006.5 |
| 20260507115555 | 8 | 336 | 0.0 | 0.0 | 0.00 | 1.50 | 0.25 | 92 | 1006.4 |
| 20260507115057 | 7 | 350 | 0.0 | 0.0 | 0.00 | 1.50 | 0.25 | 93 | 1006.4 |
| 20260507114611 | 7 | 313 | 0.0 | 0.0 | 0.00 | 1.50 | 0.25 | 94 | 1006.3 |
| 20260507114054 | 7 | 313 | 0.0 | 0.0 | 0.00 | 1.50 | 0.25 | 95 | 1006.4 |
| 20260507113554 | 7 | 313 | 0.0 | 0.0 | 0.00 | 1.50 | 0.25 | 95 | 1006.4 |
| 20260507113056 | 7 | 313 | 0.0 | 0.0 | 0.00 | 1.50 | 0.25 | 95 | 1006.6 |
| 20260507112556 | 7 | 313 | 0.0 | 0.0 | 0.00 | 1.50 | 0.25 | 95 | 1006.8 |
| 20260507112053 | 7 | 313 | 0.0 | 0.0 | 0.00 | 1.50 | 0.25 | 96 | 1006.8 |
| 20260507111554 | 7 | 313 | 0.0 | 0.0 | 0.00 | 1.50 | 0.25 | 96 | 1006.9 |
| 20260507111052 | 7 | 313 | 0.0 | 0.0 | 0.00 | 1.50 | 0.25 | 96 | 1006.9 |
| 20260507110554 | 7 | 313 | 0.0 | 0.0 | 0.00 | 1.50 | 0.25 | 95 | 1006.4 |
| 20260507110052 | 7 | 313 | 0.0 | 0.0 | 0.00 | 1.50 | 0.25 | 96 | 1006.6 |
| 20260507105551 | 7 | 313 | 0.0 | 0.0 | 0.00 | 1.50 | 0.25 | 96 | 1007.0 |
| 20260507105052 | 7 | 313 | 0.0 | 0.0 | 0.00 | 1.50 | 0.25 | 96 | 1007.1 |
| 20260507104556 | 6 | 313 | 0.0 | 0.0 | 0.00 | 1.50 | 0.25 | 96 | 1006.7 |
| 20260507104052 | 6 | 313 | 0.0 | 0.0 | 0.00 | 1.50 | 0.25 | 96 | 1006.9 |
| 20260507103552 | 6 | 313 | 0.0 | 0.0 | 0.00 | 1.50 | 0.25 | 96 | 1006.6 |
| 20260507103051 | 6 | 313 | 0.0 | 0.0 | 0.00 | 1.50 | 0.25 | 96 | 1007.2 |
| 20260507102551 | 6 | 313 | 0.0 | 0.0 | 0.00 | 1.50 | 0.25 | 95 | 1006.3 |
| 20260507102051 | 6 | 313 | 0.0 | 0.0 | 0.00 | 1.50 | 0.25 | 96 | 1006.5 |
| 20260507101552 | 6 | 313 | 0.0 | 0.0 | 0.00 | 1.50 | 0.25 | 95 | 1006.7 |
| 20260507101050 | 6 | 313 | 0.0 | 0.0 | 0.00 | 1.50 | 0.25 | 95 | 1006.8 |
| 20260507100550 | 6 | 313 | 0.0 | 0.0 | 0.00 | 1.50 | 0.25 | 95 | 1006.9 |
| 20260507100054 | 6 | 313 | 0.0 | 0.0 | 0.00 | 1.50 | 0.25 | 95 | 1006.5 |
| 20260507095549 | 6 | 313 | 0.0 | 0.0 | 0.00 | 1.50 | 0.25 | 95 | 1006.2 |
| 20260507095049 | 6 | 313 | 0.0 | 0.0 | 0.00 | 1.50 | 0.25 | 95 | 1006.1 |
| 20260507094549 | 6 | 313 | 0.0 | 0.0 | 0.00 | 1.50 | 0.25 | 95 | 1006.1 |
| 20260507094051 | 6 | 313 | 0.0 | 0.0 | 0.00 | 1.50 | 0.25 | 95 | 1006.4 |
| 20260507093552 | 6 | 313 | 0.0 | 0.0 | 0.00 | 1.50 | 0.25 | 95 | 1006.0 |
| 20260507093047 | 6 | 313 | 0.0 | 0.0 | 0.00 | 1.50 | 0.25 | 95 | 1005.9 |
| 20260507092547 | 7 | 313 | 0.0 | 0.0 | 0.00 | 1.50 | 0.25 | 95 | 1005.8 |
| 20260507092046 | 7 | 313 | 0.0 | 0.0 | 0.00 | 1.50 | 0.25 | 95 | 1006.0 |
| 20260507091546 | 7 | 313 | 0.0 | 0.0 | 0.00 | 1.50 | 0.25 | 95 | 1006.2 |
| 20260507091046 | 7 | 313 | 0.0 | 0.0 | 0.00 | 1.50 | 0.25 | 95 | 1006.5 |
| 20260507090544 | 7 | 313 | 0.0 | 0.0 | 0.00 | 1.50 | 0.25 | 95 | 1006.3 |
| 20260507090045 | 7 | 313 | 0.0 | 0.0 | 0.00 | 1.50 | 0.25 | 95 | 1006.2 |
| 20260507085546 | 7 | 313 | 0.0 | 0.0 | 0.00 | 1.50 | 0.25 | 95 | 1006.1 |
| 20260507085044 | 7 | 313 | 0.0 | 0.0 | 0.00 | 1.50 | 0.25 | 95 | 1006.6 |
| 20260507084544 | 7 | 309 | 0.0 | 0.0 | 0.00 | 1.50 | 0.25 | 95 | 1006.3 |
| 20260507084043 | 7 | 308 | 0.0 | 0.0 | 0.00 | 1.50 | 0.25 | 95 | 1006.2 |
| 20260507083544 | 7 | 312 | 0.0 | 0.0 | 0.00 | 1.50 | 0.25 | 95 | 1005.9 |
| 20260507083042 | 7 | 313 | 0.0 | 0.0 | 0.00 | 1.50 | 0.25 | 95 | 1005.9 |
| 20260507082542 | 7 | 311 | 0.0 | 0.0 | 0.00 | 1.50 | 0.25 | 95 | 1006.2 |
| 20260507082041 | 7 | 311 | 0.0 | 0.0 | 0.00 | 1.50 | 0.25 | 95 | 1006.5 |
| 20260507081541 | 7 | 311 | 0.0 | 0.0 | 0.00 | 1.50 | 0.25 | 95 | 1006.3 |
| 20260507081038 | 7 | 307 | 0.0 | 0.0 | 0.00 | 1.50 | 0.25 | 95 | 1005.9 |
| 20260507080539 | 7 | 331 | 0.0 | 0.0 | 0.00 | 1.50 | 0.25 | 95 | 1005.9 |
| 20260507080038 | 7 | 336 | 0.0 | 0.0 | 0.00 | 1.50 | 0.25 | 95 | 1005.8 |
| 20260507075538 | 7 | 312 | 0.0 | 0.0 | 0.00 | 1.50 | 0.25 | 95 | 1005.8 |
| 20260507075040 | 7 | 61 | 0.0 | 0.0 | 0.00 | 1.50 | 0.25 | 95 | 1005.8 |
| 20260507074542 | 7 | 271 | 0.0 | 0.0 | 0.00 | 1.50 | 0.25 | 95 | 1005.8 |
| 20260507074034 | 8 | 297 | 0.0 | 0.0 | 0.00 | 1.50 | 0.25 | 96 | 1005.7 |
| 20260507073538 | 8 | 297 | 0.0 | 0.0 | 0.00 | 1.50 | 0.25 | 96 | 1005.8 |
| 20260507073039 | 8 | 320 | 0.0 | 0.0 | 0.00 | 1.50 | 0.25 | 96 | 1005.8 |
| 20260507072533 | 8 | 299 | 0.0 | 0.0 | 0.00 | 1.50 | 0.25 | 96 | 1005.7 |
| 20260507072033 | 8 | 299 | 0.0 | 0.0 | 0.00 | 1.50 | 0.25 | 96 | 1005.6 |
| 20260507071534 | 8 | 303 | 0.0 | 0.0 | 0.00 | 1.50 | 0.25 | 96 | 1005.7 |
| 20260507071030 | 8 | 284 | 0.0 | 0.0 | 0.00 | 1.50 | 0.25 | 96 | 1005.5 |
| 20260507070533 | 8 | 305 | 0.0 | 0.0 | 0.00 | 1.50 | 0.25 | 96 | 1005.4 |
| 20260507070031 | 8 | 248 | 0.0 | 0.0 | 0.00 | 1.50 | 0.25 | 96 | 1005.4 |
| 20260507065529 | 8 | 316 | 0.0 | 0.0 | 0.00 | 1.50 | 0.25 | 96 | 1005.3 |
| 20260507065029 | 8 | 317 | 0.0 | 0.0 | 0.00 | 1.50 | 0.25 | 96 | 1005.3 |
| 20260507064528 | 8 | 317 | 0.0 | 0.0 | 0.00 | 1.50 | 0.25 | 96 | 1005.3 |
| 20260507064028 | 8 | 317 | 0.0 | 0.0 | 0.00 | 1.50 | 0.25 | 96 | 1005.2 |
| 20260507063527 | 8 | 317 | 0.0 | 0.0 | 0.00 | 1.50 | 0.25 | 96 | 1005.1 |
| 20260507063039 | 8 | 317 | 0.0 | 0.0 | 0.00 | 1.50 | 0.25 | 96 | 1004.9 |
| 20260507062526 | 8 | 317 | 0.0 | 0.0 | 0.00 | 1.50 | 0.25 | 96 | 1004.9 |
| 20260507062025 | 8 | 317 | 0.0 | 0.0 | 0.00 | 1.50 | 0.25 | 96 | 1004.8 |
| 20260507061527 | 8 | 317 | 0.0 | 0.0 | 0.00 | 1.50 | 0.25 | 96 | 1004.9 |
| 20260507061024 | 8 | 317 | 0.0 | 0.0 | 0.03 | 1.50 | 0.25 | 96 | 1005.0 |
| 20260507060526 | 8 | 317 | 0.0 | 0.0 | 0.03 | 1.50 | 0.25 | 96 | 1005.0 |
| 20260507060040 | 8 | 317 | 0.0 | 0.0 | 0.03 | 1.50 | 0.25 | 96 | 1004.9 |
| 20260507055524 | 8 | 317 | 0.0 | 0.0 | 0.03 | 1.50 | 0.25 | 96 | 1004.9 |
| 20260507055023 | 9 | 317 | 0.0 | 0.0 | 0.03 | 1.50 | 0.25 | 96 | 1005.0 |
| 20260507054521 | 9 | 287 | 0.0 | 0.0 | 0.03 | 1.50 | 0.25 | 96 | 1005.0 |
| 20260507054021 | 9 | 327 | 0.0 | 0.0 | 0.03 | 1.50 | 0.25 | 96 | 1004.9 |
| 20260507053520 | 9 | 300 | 0.0 | 0.0 | 0.08 | 1.50 | 0.25 | 96 | 1004.9 |
| 20260507053019 | 10 | 313 | 0.0 | 0.0 | 0.10 | 1.50 | 0.25 | 97 | 1004.7 |
| 20260507052518 | 10 | 311 | 0.0 | 0.0 | 0.15 | 1.50 | 0.25 | 97 | 1004.9 |
| 20260507052018 | 10 | 327 | 0.0 | 0.0 | 0.20 | 1.50 | 0.25 | 96 | 1005.0 |
| 20260507051518 | 10 | 328 | 0.0 | 0.0 | 0.23 | 1.50 | 0.25 | 96 | 1004.9 |
| 20260507051016 | 10 | 294 | 0.0 | 0.0 | 0.23 | 1.45 | 0.23 | 97 | 1004.9 |
| 20260507050516 | 10 | 338 | 0.0 | 0.0 | 0.23 | 1.45 | 0.23 | 97 | 1005.0 |
| 20260507050014 | 10 | 318 | 0.0 | 0.0 | 0.23 | 1.45 | 0.23 | 97 | 1005.0 |
| 20260507045514 | 10 | 20 | 0.0 | 0.0 | 0.25 | 1.45 | 0.23 | 97 | 1004.7 |
| 20260507045013 | 10 | 315 | 0.0 | 0.0 | 0.25 | 1.45 | 0.23 | 97 | 1004.8 |
| 20260507044515 | 11 | 347 | 0.0 | 0.0 | 0.25 | 1.45 | 0.23 | 97 | 1005.0 |
| 20260507044012 | 11 | 327 | 0.0 | 0.0 | 0.23 | 1.42 | 0.20 | 97 | 1005.0 |
| 20260507043514 | 11 | 331 | 0.0 | 0.0 | 0.20 | 1.42 | 0.18 | 97 | 1004.7 |
| 20260507043012 | 11 | 290 | 0.0 | 0.0 | 0.18 | 1.40 | 0.15 | 98 | 1004.9 |
| 20260507042512 | 11 | 336 | 0.0 | 0.0 | 0.15 | 1.35 | 0.10 | 98 | 1005.0 |
| 20260507042010 | 11 | 307 | 0.0 | 0.0 | 0.13 | 1.30 | 0.05 | 97 | 1004.9 |
| 20260507041508 | 11 | 307 | 0.0 | 0.0 | 0.10 | 1.27 | 0.03 | 97 | 1004.7 |
| 20260507041008 | 11 | 307 | 0.0 | 0.0 | 0.08 | 1.24 | 0.00 | 97 | 1004.3 |
| 20260507040506 | 10 | 307 | 0.0 | 0.0 | 0.08 | 1.24 | 0.00 | 97 | 1004.2 |